Вернуться в каталог

ONEWEB-0623

АктивенСвязьPO
NORAD 55164·PAYLOAD·🇬🇧 United Kingdom

Запущен Jan 10, 2023 с Cape Canaveral Space Force Station

Loading…

Ближайшие Пролёты (ближайшие 24 часа)

TLE

СвежийSource: CelesTrak SupGP

Эпоха: Sep 14, 2026, 20:58 UTC

1 55164C 23004AA  26257.87375417 -.00001675  00000+0 -43200-2 0  2572
2 55164  87.9206 348.0662 0002235 122.7551 346.9137 13.17653247    12

Отслеживайте ONEWEB-0623 в реальном времени с AllMySat

Download on the App Store